Flag for Germany Weather past 2 weeks in Rostock, Mecklenburg-Western Pomerania, Germany

Now
62 °F

Passing clouds.


Feels Like: 62 °F
Forecast: 55 / 70 °F
Wind: 7 mph from Northwest

Location: Rostock-Warnemuende

Current Time: Aug 27, 2014 at 11:10:56 PM

Latest Report: Aug 27, 2014 at 10:00 PM


Visibility: 38 mi

Pressure: 30.00 "Hg

Humidity: 77%

Dew point: 55 °F

Location of RostockLocation

Historic Weather in Rostock — Graph

°F

Rostock temperature yesterday

Maximum temperature yesterday: 62 °F (at 5:00 PM)
Minimum temperature yesterday: 49 °F (at 6:00 AM)
Average temperature yesterday: 57 °F

Past Weeks' High & Low Weather Summary

 TemperatureHumidityPressure
High73 °F (Aug 13, 5:00 PM)93% (Aug 19, 8:00 PM)30.00 "Hg (Aug 19, 8:00 PM)
Low49 °F (Aug 25, 7:00 AM)38% (Aug 13, 1:00 PM)29.44 "Hg (Aug 18, 4:00 PM)
Average59 °F73%29.79 "Hg
* Reported Aug 12 11:00 PM — Aug 27 10:00 PM, Rostock, Weather by CustomWeather, © 2014

Note: Actual official high and low records may vary slightly from our data, if they occured in-between our weather recording intervals... More about our weather records

Advertising

Rostock weather history for previous 24 hours

 ConditionsComfort  
Time TempWeatherWind HumidityBarometerVisibility
10:00 PM
Aug 27
62 °FPassing clouds.7 mph77%30.00 "Hg37 mi
9:00 PM63 °FPassing clouds.7 mph75%29.99 "Hg37 mi
8:00 PM63 °FPassing clouds.7 mph72%29.98 "Hg37 mi
7:00 PM64 °FPassing clouds.7 mph69%29.98 "Hg37 mi
6:00 PM65 °FPassing clouds.7 mph70%29.97 "Hg31 mi
5:00 PM65 °FPassing clouds.8 mph68%29.97 "Hg31 mi
4:00 PM65 °FPassing clouds.8 mph70%29.98 "Hg31 mi
3:00 PM65 °FPassing clouds.7 mph66%29.98 "Hg31 mi
2:00 PM64 °FPassing clouds.7 mph62%29.97 "Hg31 mi
1:00 PM64 °FPassing clouds.8 mph64%29.97 "Hg31 mi
12:00 PM63 °FScattered clouds.7 mph66%29.96 "Hg31 mi
11:00 AM62 °FScattered clouds.6 mph67%29.95 "Hg31 mi
10:00 AM61 °FScattered clouds.7 mph74%29.93 "Hg31 mi
9:00 AM60 °FPartly sunny.7 mph80%29.91 "Hg31 mi
8:00 AM59 °FPartly sunny.8 mph87%29.90 "Hg31 mi
7:00 AM59 °FScattered clouds.7 mph86%29.88 "Hg34 mi
6:00 AM59 °FPassing clouds.8 mph86%29.88 "Hg34 mi
5:00 AM59 °FPassing clouds.7 mph86%29.87 "Hg31 mi
4:00 AM59 °FClear.7 mph85%29.85 "Hg37 mi
3:00 AM59 °FClear.6 mph82%29.84 "Hg37 mi
2:00 AM59 °FClear.6 mph83%29.83 "Hg37 mi
1:00 AM60 °FClear.7 mph80%29.82 "Hg37 mi
12:00 AM60 °FClear.7 mph80%29.81 "Hg37 mi
11:00 PM
Aug 26
60 °FClear.7 mph81%29.80 "Hg37 mi
Weather by CustomWeather, © 2014

See weather overviewHow to use our weather pages